This demonstration page uses our WeatherBlox Daily Observations layout. Learn more.

Left ArrowRight Arrow

Hourly Observations for September 8, 2015

Temp ( °F °C ) Dew Point ( °F °C ) Humidity (%) Winds ( mph kmh ) Pressure ( in mb ) Visibility ( mi km ) Precip ( " mm )
12:53 am 00:53 Clear 69 20.6 67 19.4 93 93 E 7 11 29.87 1011 10 16 0.00 0.00
1:17 am 01:17 Partly Cloudy 68 20 67 19.4 96 96 ENE 6 9 29.88 1012 9 14 0.00 0.00
1:32 am 01:32 Mostly Cloudy 68 20 66 19 94 94 E 7 11 29.88 1012 9 14 0.00 0.00
1:53 am 01:53 Cloudy 68 20 67 19.4 96 96 ESE 6 9 29.87 1012 10 16 0.00 0.00
2:44 am 02:44 Partly Cloudy 68 20 66 19 94 94 SSE 7 11 29.85 1011 10 16 0.00 0.00
2:53 am 02:53 Mostly Clear 68 20 67 19.4 96 96 SE 6 9 29.85 1011 10 16 0.00 0.00
3:02 am 03:02 Partly Cloudy 68 20 66 19 94 94 SSE 7 11 29.83 1010 10 16 0.00 0.00
3:11 am 03:11 Mostly Cloudy 68 20 67 19.4 96 96 SSE 7 11 29.83 1010 10 16 0.00 0.00
3:40 am 03:40 Cloudy with Mist and Fog 68 20 66 19 94 94 SSE 5 7 29.85 1011 2 3 0.00 0.00
3:53 am 03:53 Mostly Cloudy with Fog 68 20 67 19.4 96 96 SE 3 6 29.85 1011 1 1 0.01 0.25
4:53 am 04:53 Mostly Cloudy with Fog 68 20 67 19.4 96 96 NE 3 6 29.86 1011 0 0 0.00 0.00
5:53 am 05:53 Mostly Cloudy with Fog 68 20 67 19.4 96 96 NNE 10 17 29.88 1012 0 0 0.00 0.00
6:29 am 06:29 Cloudy with Mist and Fog 67 19.4 67 19.4 100 100 NE 12 19 29.88 1012 2 3 0.00 0.00
6:37 am 06:37 Cloudy with Mist and Fog 66 18.9 66 18.9 100 100 ENE 15 24 29.88 1012 3 4 0.00 0.00
6:53 am 06:53 Cloudy with Mist and Fog 65 18.3 64 17.8 97 97 ENE 16 26 29.91 1013 3 5 0.00 0.03
7:14 am 07:14 Cloudy with Mist and Fog 64 18 63 17 94 94 E 13 20 29.91 1013 6 10 0.00 0.00
7:39 am 07:39 Cloudy 65 18.3 63 17.2 93 93 E 10 17 29.91 1013 10 16 0.00 0.00
7:53 am 07:53 Cloudy 65 18.3 62 16.7 90 90 E 9 15 29.94 1014 10 16 0.00 0.00
8:53 am 08:53 Cloudy 64 17.8 60 15.6 87 87 E 5 7 29.96 1015 10 16 0.00 0.00
9:33 am 09:33 Cloudy 66 18.9 60 15.6 81 81 ENE 6 9 29.94 1014 10 16 0.00 0.00
9:53 am 09:53 Cloudy 66 18.9 60 15.6 81 81 ENE 3 6 29.98 1015 10 16 0.00 0.00
10:53 am 10:53 Mostly Sunny 71 21.7 61 16.1 71 71 NE 8 13 29.97 1015 10 16 0.00 0.00
11:53 am 11:53 Sunny 74 23.3 60 15.6 62 62 NE 9 15 29.96 1015 10 16 0.00 0.00
12:53 pm 12:53 Sunny 76 24.4 61 16.1 60 60 NE 13 20 29.96 1015 10 16 0.00 0.00
1:53 pm 13:53 Sunny 76 24.4 58 14.4 54 54 NE 10 17 29.95 1014 10 16 0.00 0.00
2:53 pm 14:53 Sunny 78 25.6 60 15.6 54 54 NE 9 15 29.95 1014 10 16 0.00 0.00
3:53 pm 15:53 Mostly Sunny 79 26.1 59 15 50 50 Calm 29.94 1014 10 16 0.00 0.00
4:53 pm 16:53 Cloudy 77 25 59 15 54 54 E 6 9 29.95 1014 10 16 0.00 0.00
5:53 pm 17:53 Mostly Cloudy 76 24.4 61 16.1 60 60 NE 9 15 29.96 1015 10 16 0.00 0.00
6:53 pm 18:53 Sunny 74 23.3 62 16.7 67 67 ENE 7 11 29.96 1014 10 16 0.00 0.00
7:53 pm 19:53 Sunny 70 21.1 63 17.2 79 79 NNE 7 11 29.96 1015 10 16 0.00 0.00
8:53 pm 20:53 Partly Cloudy 66 18.9 62 16.7 87 87 NE 6 9 29.98 1015 10 16 0.00 0.00
9:53 pm 21:53 Clear 65 18.3 61 16.1 87 87 NNE 3 6 30.01 1016 10 16 0.00 0.00
10:53 pm 22:53 Clear 64 17.8 61 16.1 90 90 ENE 3 6 30.01 1016 10 16 0.00 0.00
11:53 pm 23:53 Clear 64 17.8 61 16.1 90 90 ENE 5 7 30.01 1016 10 16 0.00 0.00

Powered by AerisWeather